Simultaneous Nadir Overpasses (SNOs) Predictions

Prediction of SNOs between GOES-15 and NOAA-20 Satellite Orbit:

Table of predicted SNOs for the next 14.0 days since TLE Epoch: 8/24/2024
Index Date Time (GOES-15) GOES-15 Lat,Lon NOAA-20 Lat,Lon Distance(km) Time Diff (sec)
1 08/24/2024 21:19:43 0.41, 61.63 0.44, 61.49 16.19 80
2 08/27/2024 09:20:12 -0.41, 61.54 -0.62, 60.72 93.44 80
3 08/28/2024 09:04:06 -0.40, 61.53 0.42, 65.25 424.59 80
4 08/29/2024 21:25:52 0.40, 61.57 0.77, 59.99 180.72 80
5 08/30/2024 21:04:26 0.39, 61.57 -0.27, 64.52 336.54 80
6 09/01/2024 09:26:21 -0.39, 61.50 -0.92, 59.22 259.63 80
7 09/02/2024 09:10:15 -0.39, 61.48 0.14, 63.75 258.58 80
8 09/03/2024 21:32:00 0.39, 61.52 1.05, 58.49 345.40 80
9 09/04/2024 21:10:34 0.39, 61.52 0.06, 63.03 172.01 80
10 09/06/2024 09:32:28 -0.38, 61.46 -1.21, 57.72 425.57 80
